Location: ?astrovice
(49.6513°N, 14.9287°E)
Time: 07:28:31
(UTC+00:00)

BEESAT - Pass Details

Date: 29 October 2021
Orbit: 700 x 707 km, 98.6° (Epoch: 01 December)

Event Time Altitude Azimuth Distance (km) Brightness Sun altitude
Rises 04:57:57 0° 144° (SE) 3,077 ? -8.0°
Reaches altitude 10° 05:00:17 10° 138° (SE) 2,163 ? -7.7°
Maximum altitude 05:04:45 44° 67° (ENE) 971 ? -7.0°
Drops below altitude 10° 05:09:16 10° 356° (N) 2,178 ? -6.3°
Sets 05:11:36 0° 351° (N) 3,101 ? -5.9°
